Location: Pic du Midi - T1M
(42.9366°N, 0.1426°E)
Time: 11:20:23
(UTC+01:00)

X-37B - Pass Details

Date: 21 June 2021
Orbit: 383 x 392 km, 45.0° (Epoch: 01 July)

Event Time Altitude Azimuth Distance (km) Brightness Sun altitude
Exits shadow 02:05:29 39° 58° (ENE) 590 1.8 -22.0°
Drops below altitude 10° 02:07:43 10° 82° (E) 1,398 3.7 -21.9°
Sets 02:09:49 0° 87° (E) 2,252 4.7 -21.8°
